Tracking 31027 objects as of 19-Jul-2025
HD Live streaming from Space Station
objects crossing your sky now

CZ-2D DEB

Track CZ-2D DEB now!
10-day predictions


NORAD ID: 44610
Int'l Code: 2017-060C
Perigee: 551.6 km
Apogee: 579.4 km
Inclination: 98.2 °
Period: 95.8 minutes
Semi major axis: 6936 km
RCS: Unknown
Launch date: October 9, 2017
Source: People's Republic of China (PRC)
Launch site: Jiuquan Satellite Launch Center, China (JSC)

Note: This is SATELLITE DEBRIS
Your satellite tracking list
SPACEBEE-134
Track 1 satellite(s)




NASA's NSSDC Master Catalog

Two Line Element Set (TLE):
1 44610U 17060C   25199.77970530  .00006662  00000-0  50097-3 0  9997
2 44610  98.2478  18.3191 0020051 131.7139 228.5803 15.02768416419069
Source of the keplerian elements: AFSPC